Weather History for KHRT - May, 2014

Change the Weather History Date:

Saturday, May 24, 2014

  Actual Average Record
Temperature  
Mean Temperature 78 °F -  
Max Temperature 87 °F 82 °F 91 °F (2005)
Min Temperature 69 °F 66 °F 59 °F (2002)
Cooling Degree Days 13    
Growing Degree Days 28 (Base 50)    
Moisture  
Dew Point 66 °F    
Average Humidity 66    
Maximum Humidity 83    
Minimum Humidity 47    
Precipitation  
Precipitation 0.00 in - - ()
Sea Level Pressure  
Sea Level Pressure 30.07 in    
Wind  
Wind Speed 4 mph (WNW)    
Max Wind Speed 10 mph    
Max Gust Speed -    
Visibility 10 miles    
Events      
Averages and records for this station are not official NWS values.
T = Trace of Precipitation, MM = Missing Value Source: NWS Daily Summary

Daily Weather History Graph

Daily Weather History Graph

Search for Another Location

Airport or City:

Trip Planner

Search our weather history database for the weather conditions in past years. The results will help you decide how hot, cold, wet, or windy it might be!

Date:

Astronomy

May. 24, 2014 Rise Set
Actual Time 5:47 AM CDT 7:39 PM CDT
Civil Twilight 5:20 AM CDT 8:06 PM CDT
Nautical Twilight 4:48 AM CDT 8:39 PM CDT
Astronomical Twilight 4:14 AM CDT 9:13 PM CDT
Moon 2:58 AM CDT (5/24) 3:52 PM CDT (5/24)
Length of Visible Light 14h 45m
Length of Day
13h 51m
Waning Crescent, 18% of the Moon is Illuminated
May 24
Waning Crescent
May 28
New
Jun 5
First Quarter
Jun 12
Full
Jun 19
Last Quarter

Hourly Weather History & Observations

Time (CDT) Temp. Heat Index Dew Point Humidity Pressure Visibility Wind Dir Wind Speed Gust Speed Precip Events Conditions
12:58 AM 74.1 °F - 65.8 °F 75% 30.07 in 10.0 mi North - - N/A   Clear
1:58 AM 72.5 °F - 65.7 °F 79% 30.07 in 10.0 mi NNW 1.2 mph - N/A   Clear
2:58 AM 71.8 °F - 64.8 °F 78% 30.06 in 10.0 mi North 1.2 mph - N/A   Clear
3:58 AM 71.4 °F - 64.8 °F 79% 30.07 in 10.0 mi NNW 2.3 mph - N/A   Clear
4:58 AM 71.1 °F - 64.8 °F 80% 30.08 in 10.0 mi North 2.3 mph - N/A   Clear
5:58 AM 69.3 °F - 64.0 °F 83% 30.09 in 10.0 mi Calm Calm - N/A   Clear
6:58 AM 71.4 °F - 65.1 °F 80% 30.10 in 6.0 mi NNW 2.3 mph - N/A   Haze
7:58 AM 76.1 °F - 66.4 °F 72% 30.11 in 10.0 mi NW 8.1 mph - N/A   Clear
8:58 AM 79.7 °F - 66.7 °F 64% 30.12 in 10.0 mi NW 8.1 mph - N/A   Clear
9:58 AM 81.0 °F 83.0 °F 65.8 °F 60% 30.12 in 10.0 mi NW 8.1 mph - N/A   Clear
10:58 AM 83.3 °F 86.4 °F 68.2 °F 60% 30.11 in 10.0 mi NW 3.5 mph - N/A   Clear
11:58 AM 87.1 °F 90.6 °F 68.2 °F 53% 30.09 in 10.0 mi Variable 2.3 mph - 0.00 in   Clear
12:58 PM 86.4 °F 88.7 °F 66.2 °F 51% 30.08 in 10.0 mi South 8.1 mph - N/A   Scattered Clouds
1:58 PM 82.9 °F 85.4 °F 66.7 °F 58% 30.07 in 10.0 mi SW 10.4 mph - N/A   Clear
2:58 PM 86.7 °F 88.1 °F 64.0 °F 47% 30.07 in 10.0 mi SW 10.4 mph - N/A   Clear
3:58 PM 84.7 °F 86.1 °F 64.0 °F 50% 30.06 in 10.0 mi SW 8.1 mph - N/A   Clear
4:58 PM 82.9 °F 84.6 °F 64.6 °F 54% 30.05 in 10.0 mi SW 6.9 mph - N/A   Clear
5:58 PM 83.1 °F 83.9 °F 62.2 °F 49% 30.04 in 10.0 mi WSW 5.8 mph - N/A   Clear
6:58 PM 81.5 °F 83.6 °F 66.0 °F 59% 30.04 in 10.0 mi WSW 4.6 mph - N/A   Clear
7:58 PM 79.9 °F - 69.8 °F 71% 30.04 in 10.0 mi SW 2.3 mph - N/A   Clear
8:58 PM 79.2 °F - 68.7 °F 70% 30.05 in 10.0 mi West 2.3 mph - N/A   Scattered Clouds
9:58 PM 78.8 °F - 67.3 °F 68% 30.06 in 10.0 mi WNW 2.3 mph - N/A   Overcast
10:58 PM 78.3 °F - 65.8 °F 65% 30.07 in 10.0 mi WNW 2.3 mph - N/A   Mostly Cloudy
11:58 PM 77.2 °F - 65.7 °F 67% 30.07 in 10.0 mi Calm Calm - N/A   Scattered Clouds